Regional Weather Roundup
Issued by NWS

Home | Current Version | Previous Version | Graphics & Text | Print | Product List | Glossary On
Versions: 1 2 3 4 5 6 7 8 9 10 11 12 13 14 15 16 17 18 19 20 21 22 23 24 25 26 27 28 29 30 31 32 33 34 35 36 37 38 39 40 41 42 43 44 45 46 47 48 49 50
000
ASUS43 KTOP 230608
RWRKS

WEATHER ROUNDUP FOR KANSAS
NATIONAL WEATHER SERVICE GOODLAND KS
100 AM CDT WED AUG 23 2017

NOTE:  "FAIR" INDICATES FEW OR NO CLOUDS BELOW 12,000 FEET WITH NO
SIGNIFICANT WEATHER AND/OR OBSTRUCTIONS TO VISIBILITY.

KSZ001>006-013>018-027>032-041>047-230700-
NORTHWEST KANSAS

CITY           SKY/WX    TMP DP  RH WIND       PRES   REMARKS
GOODLAND       CLEAR     58  50  75 S9        30.24S
6HR MIN TEMP:  58; 6HR MAX TEMP:  77;

HAYS           CLEAR     60  52  74 E8        30.22S
HILL CITY      CLEAR     59  53  80 E3        30.23S
6HR MIN TEMP:  59; 6HR MAX TEMP:  82;

RUSSELL        CLEAR     60  51  72 E7        30.20S
6HR MIN TEMP:  60; 6HR MAX TEMP:  82;

$$

KSZ061>065-074>080-084>089-230700-
SOUTHWEST KANSAS

CITY           SKY/WX    TMP DP  RH WIND       PRES   REMARKS
DODGE CITY       N/A    N/A N/A N/A MISG      30.21S
ELKHART          N/A     63  60  90 E9          N/A
GARDEN CITY    CLEAR     61  53  75 E8        30.21F
6HR MIN TEMP:  61; 6HR MAX TEMP:  83;

GREAT BEND     CLEAR     63  51  65 NE6       30.21R
LIBERAL        CLEAR     68  56  65 E10       30.20F
PRATT          CLEAR     63  50  63 NE6       30.19R
6HR MIN TEMP:  63; 6HR MAX TEMP:  81;

$$

KSZ066>073-081>083-090>101-230700-
SOUTHEAST KANSAS

CITY           SKY/WX    TMP DP  RH WIND       PRES   REMARKS
CHANUTE        CLEAR     65  58  78 N7        30.15R
6HR MIN TEMP:  65; 6HR MAX TEMP:  81;

COFFEYVILLE    CLOUDY    68  63  84 N9        30.12R
6HR MIN TEMP:  68; 6HR MAX TEMP:  80;

HUTCHINSON     CLEAR     65  49  56 NE7       30.16S
6HR MIN TEMP:  65; 6HR MAX TEMP:  82;

MEDICINE LODGE   N/A     65  52  62 E7        30.16R
NEWTON         CLEAR     63  53  70 NE13      30.18R
PARSONS        MOCLDY    67  60  78 N5        30.15R
6HR MIN TEMP:  66; 6HR MAX TEMP:  81;

WICHITA INTL   PTCLDY    67  57  70 NE8       30.16R
6HR MIN TEMP:  67; 6HR MAX TEMP:  82;

WICHITA JABRA  CLEAR     61  58  90 NE5       30.17R
6HR MIN TEMP:  61; 6HR MAX TEMP:  79;

WICHITA MCCONL CLEAR     67  56  70 NE8       30.16R
WINFIELD       CLEAR     69  62  78 NE8       30.15S
6HR MIN TEMP:  68; 6HR MAX TEMP:  81;

$$

KSZ007>012-019>026-033>040-048>060-102>105-230700-
NORTHEAST KANSAS

CITY           SKY/WX    TMP DP  RH WIND       PRES   REMARKS
CONCORDIA      CLEAR     58  54  86 SE3       30.20R
6HR MIN TEMP:  58; 6HR MAX TEMP:  76;

EMPORIA        CLEAR     60  55  83 NE5       30.16S
6HR MIN TEMP:  60; 6HR MAX TEMP:  78;

LAWRENCE       CLEAR     58  57  97 CALM      30.16R
6HR MIN TEMP:  58; 6HR MAX TEMP:  76;

MANHATTAN      CLEAR     57  54  89 CALM      30.18R
6HR MIN TEMP:  57; 6HR MAX TEMP:  78;

MARYSVILLE     CLEAR     54  52  94 CALM      30.19S
OLATHE IND     CLEAR     59  55  87 N6        30.17R
6HR MIN TEMP:  58; 6HR MAX TEMP:  75;

OLATHE EXE     CLEAR     63  54  72 N6        30.16R
6HR MIN TEMP:  63; 6HR MAX TEMP:  77;

SALINA         CLEAR     68  51  54 NE7       30.19R
6HR MIN TEMP:  68; 6HR MAX TEMP:  83;

TOPEKA BILLARD CLEAR     60  57  89 CALM      30.17R
6HR MIN TEMP:  60; 6HR MAX TEMP:  76;

TOPEKA FORBES  CLEAR     59  56  89 N3        30.17R
6HR MIN TEMP:  59; 6HR MAX TEMP:  77;

$$




USA.gov is the U.S. government's official web portal to all federal, state and local government web resources and services.